📊 Raw Sensor Data

Showing records 51101 to 51125 of 85,144 total

ID Distance (ft) Battery V Battery A Int Temp (°F) Int Humid (%) Ext Temp (°F) Solar V RSSI SNR Time Stamp
34056 15.0 4.05 31 63 41 58 4.50 -77 7 03/04/2025 05:30 PM
34055 15.0 4.02 0 64 42 58 4.50 -77 8 03/04/2025 05:15 PM
34054 15.1 4.00 5 68 39 60 5.10 -75 8 03/04/2025 05:00 PM
34053 15.1 4.00 5 67 40 61 5.10 -76 8 03/04/2025 04:45 PM
34052 15.0 4.00 5 67 42 60 5.10 -77 7 03/04/2025 04:30 PM
34051 15.2 4.00 0 80 36 63 5.10 -79 7 03/04/2025 03:45 PM
34050 15.2 4.01 5 81 35 64 5.10 -79 8 03/04/2025 03:30 PM
34049 15.2 4.01 5 81 34 66 5.10 -80 6 03/04/2025 03:15 PM
34048 15.2 4.00 0 79 35 67 5.10 -80 7 03/04/2025 03:00 PM
34047 15.2 4.00 5 78 34 60 5.10 -79 8 03/04/2025 02:45 PM
34046 15.2 4.06 5 76 35 64 5.10 -80 7 03/04/2025 02:30 PM
34045 15.2 4.00 0 75 35 63 5.10 -80 7 03/04/2025 02:15 PM
34044 15.1 4.00 5 71 36 62 5.10 -77 8 03/04/2025 02:00 PM
34043 15.2 4.02 5 69 36 61 5.10 -79 8 03/04/2025 01:30 PM
34042 15.1 4.00 0 68 37 60 5.10 -78 8 03/04/2025 01:15 PM
34041 15.1 4.00 0 67 37 60 5.10 -80 8 03/04/2025 01:00 PM
34040 15.1 4.11 5 66 36 60 5.10 -80 5 03/04/2025 12:45 PM
34039 15.1 4.00 5 65 36 60 5.10 -77 8 03/04/2025 12:30 PM
34038 15.1 4.00 0 62 38 59 5.10 -79 8 03/04/2025 12:15 PM
34037 15.0 4.00 5 60 38 58 5.10 -79 8 03/04/2025 12:00 PM
34036 15.1 4.00 0 60 38 57 5.10 -78 6 03/04/2025 11:45 AM
34035 15.1 4.00 5 59 38 57 5.10 -79 8 03/04/2025 11:30 AM
34034 15.1 4.00 0 59 37 57 5.10 -76 8 03/04/2025 11:15 AM
34033 15.1 4.00 5 58 37 57 5.10 -76 7 03/04/2025 11:00 AM
34032 15.0 4.00 5 58 37 56 5.10 -75 7 03/04/2025 10:45 AM